Atlantic - Newfoundland: Past 24 Hour Conditions

 

St. John's Int'l Airport

07:30 PM NDT 21 September 2014
This table is a summary of hourly weather conditions for the past 24 hours.
Date / Time
(NDT)
Wind(knots) Conditions Visibility(km) Pressure(kPa) Air tempC) Relative humidity(%) Dew pointC)
21 September 2014
19:30 SW 16 gust 25 Partly Cloudy 24 102.1 16 88 14
18:30 SW 22 gust 35 Mainly Sunny 24 102.1 17 81 14
17:30 WSW 24 gust 32 Partly Cloudy 24 102.0 19 71 13
16:30 WSW 22 gust 33 Partly Cloudy 24 102.0 19 70 14
15:30 WSW 27 gust 36 Partly Cloudy 24 102.0 21 63 13
14:30 WSW 19 gust 34 Partly Cloudy 24 102.0 21 57 12
13:30 WSW 19 gust 31 Mostly Cloudy 24 102.0 20 53 10
12:30 WSW 25 gust 35 Mostly Cloudy 24 102.0 19 61 12
11:30 WSW 24 gust 34 Mostly Cloudy 24 102.0 17 70 12
10:30 WSW 25 gust 33 Mostly Cloudy 24 102.0 17 75 12
9:30 WSW 25 gust 35 Mostly Cloudy 24 102.0 16 79 12
8:30 WSW 24 gust 35 Cloudy 24 101.9 15 81 12
7:30 WSW 23 gust 29 Light Rainshower 19 101.9 14 86 12
6:30 WSW 21 gust 28 Mostly Cloudy 24 101.9 14 83 11
5:30 WSW 19 gust 31 Mostly Cloudy 24 101.9 14 84 11
4:30 WSW 25 gust 33 Mostly Cloudy 24 102.0 14 82 11
3:30 WSW 23 gust 32 Mostly Cloudy 24 102.0 13 79 10
2:30 WSW 19 gust 34 Mostly Cloudy 24 102.0 13 78 9
1:30 WSW 24 gust 33 Mostly Cloudy 24 102.1 12 77 9
0:30 WSW 20 gust 26 Mostly Cloudy 24 102.1 12 76 8
20 September 2014
23:30 WSW 22 gust 31 Mostly Cloudy 24 102.1 12 76 8
22:30 WSW 23 gust 32 Mostly Cloudy 24 102.2 11 76 7
21:30 WSW 17 gust 32 Cloudy 24 102.2 11 74 7
20:30 WSW 27 gust 36 Mostly Cloudy 24 102.2 12 72 7
19:30 WSW 23 gust 37 Mostly Cloudy 24 102.2 11 73 7
 
Map of Atlantic - Newfoundland marine weather areas Southwestern Grand Banks - 44138 Banquereau - 44139 Tail of the Bank - 44140 Nickerson Bank - 44251 Northeast Burgeo Bank - 44255 Blanc-Sablon Airport Cap Whittle Chevery Natashquan Airport Heath Point Miscou Island Grand Étang Ingonish Beach North Mountain St.Paul Island J.A. Douglas McCurdy Sydney Airport Charlottetown Airport East Point North Cape Argentia Bonavista Burgeo Cape Race Corner Brook Daniel's Harbour Englee Ferolle Point La Scie Port aux Basques Rocky Harbour Sagona Island St. Anthony Airport St. John's Int'l Airport St. Lawrence Stephenville Airport Twillingate Winterland Wreckhouse Cartwright Airport Mary's Harbour Grates Cove Pool's Island Marticot Island Long Pond Îles de la Madeleine Airport
Legend: buoyBuoy land stationLand Station